Total_Precipitation_Accumulation
0.52 0.49 0.46 0.45 0.43 0.39 0.37 0.39 0.38 0.37 0.38 0.42 0.42 0.38 0.38 0.34 0.31 0.30 0.27 0.28 0.26 0.27 0.43 0.61 0.76 0.97 1.16 1.33 1.54 1.59 1.35 1.18 1.05 0.93 0.93 1.05 1.13 1.16 1.20 1.27 1.38 1.32 1.12
0.57 0.51 0.47 0.44 0.44 0.43 0.41 0.39 0.38 0.35 0.31 0.28 0.27 0.27 0.32 0.34 0.35 0.35 0.31 0.31 0.30 0.28 0.34 0.51 0.68 0.87 1.12 1.36 1.60 1.86 1.71 1.52 1.34 1.14 0.98 1.00 1.08 1.15 1.17 1.25 1.36 1.49 1.44
0.67 0.61 0.56 0.49 0.44 0.44 0.43 0.44 0.42 0.38 0.34 0.29 0.25 0.23 0.23 0.25 0.28 0.33 0.32 0.32 0.34 0.32 0.32 0.41 0.58 0.75 0.98 1.29 1.59 1.86 2.07 1.90 1.70 1.52 1.27 1.08 1.09 1.18 1.25 1.32 1.40 1.52 1.58
0.76 0.72 0.69 0.65 0.60 0.54 0.50 0.47 0.44 0.43 0.39 0.34 0.30 0.27 0.26 0.25 0.24 0.26 0.28 0.31 0.35 0.36 0.35 0.40 0.50 0.69 0.89 1.09 1.38 1.70 2.10 2.14 2.09 1.95 1.80 1.49 1.27 1.27 1.36 1.43 1.54 1.58 1.58
0.87 0.82 0.77 0.76 0.78 0.74 0.63 0.55 0.49 0.43 0.41 0.37 0.34 0.32 0.29 0.27 0.27 0.27 0.25 0.24 0.26 0.31 0.35 0.38 0.45 0.58 0.72 0.91 1.17 1.48 1.83 2.19 2.31 2.30 2.25 2.05 1.69 1.43 1.44 1.53 1.55 1.64 1.72
0.96 0.95 0.87 0.80 0.80 0.80 0.75 0.64 0.55 0.49 0.44 0.42 0.39 0.37 0.37 0.34 0.29 0.26 0.26 0.25 0.23 0.25 0.32 0.37 0.40 0.47 0.59 0.73 0.94 1.24 1.60 2.01 2.39 2.49 2.47 2.47 2.32 1.93 1.69 1.67 1.67 1.77 1.90
1.02 1.03 1.01 0.96 0.89 0.83 0.76 0.70 0.63 0.60 0.55 0.49 0.50 0.49 0.44 0.41 0.39 0.33 0.28 0.27 0.26 0.25 0.28 0.37 0.42 0.44 0.52 0.64 0.77 0.92 1.24 1.67 2.21 2.74 2.74 2.67 2.76 2.58 2.22 2.03 1.98 2.04 2.22
1.10 1.06 1.06 1.06 1.01 0.91 0.84 0.77 0.72 0.73 0.69 0.60 0.56 0.61 0.61 0.56 0.46 0.39 0.34 0.29 0.28 0.29 0.30 0.32 0.40 0.45 0.48 0.56 0.61 0.76 0.95 1.27 1.76 2.48 3.16 3.19 3.22 3.31 2.92 2.50 2.34 2.36 2.46
1.05 1.02 0.97 0.94 0.99 0.98 0.91 0.81 0.76 0.75 0.77 0.70 0.59 0.70 0.81 0.70 0.49 0.40 0.37 0.32 0.29 0.30 0.30 0.31 0.35 0.43 0.47 0.55 0.57 0.61 0.73 0.97 1.32 1.91 2.77 3.51 3.70 3.86 3.77 3.14 2.80 2.73 2.73
1.07 1.02 1.00 0.94 0.90 0.87 0.82 0.77 0.74 0.73 0.78 0.78 0.67 0.60 0.62 0.65 0.69 0.55 0.40 0.37 0.38 0.35 0.33 0.31 0.32 0.38 0.46 0.55 0.64 0.64 0.66 0.79 1.05 1.47 2.15 3.05 3.85 4.21 4.45 4.08 3.43 3.18 3.11
1.11 1.12 1.07 1.02 0.98 0.89 0.79 0.73 0.72 0.74 0.76 0.77 0.72 0.64 0.58 0.52 0.54 0.68 0.54 0.46 0.50 0.47 0.45 0.41 0.39 0.41 0.47 0.57 0.63 0.69 0.77 0.83 1.11 1.33 1.70 2.32 3.32 4.18 4.79 4.87 4.30 3.66 3.35
1.10 1.11 1.11 1.06 1.00 0.99 0.92 0.82 0.77 0.77 0.75 0.74 0.75 0.71 0.69 0.69 0.60 0.63 0.62 0.50 0.49 0.48 0.50 0.55 0.55 0.56 0.59 0.65 0.75 0.91 0.89 0.97 1.19 1.28 1.36 1.64 2.34 3.32 4.22 4.77 4.59 3.93 3.51
1.08 1.09 1.12 1.10 1.05 1.00 0.96 0.91 0.89 0.86 0.83 0.83 0.85 0.81 0.75 0.70 0.67 0.74 0.82 0.68 0.56 0.49 0.50 0.55 0.58 0.61 0.68 0.73 0.87 0.99 0.97 1.05 1.12 1.20 1.20 1.29 1.63 2.33 3.21 4.13 4.53 4.19 3.65
1.00 0.97 0.99 1.02 1.00 0.95 0.92 0.92 0.93 0.90 0.91 0.93 0.91 0.90 0.88 0.78 0.77 0.86 0.97 1.05 0.94 0.65 0.53 0.55 0.56 0.62 0.71 0.80 0.95 1.08 1.05 1.08 1.10 1.17 1.17 1.13 1.23 1.50 2.16 3.17 4.38 4.79 4.18
0.92 0.95 0.94 0.93 0.88 0.86 0.84 0.82 0.84 0.84 0.89 0.92 0.94 0.96 0.97 0.88 0.87 0.89 0.96 1.16 1.41 1.20 0.72 0.53 0.54 0.61 0.68 0.78 0.98 0.92 0.87 0.90 0.92 0.97 1.05 1.05 1.04 1.14 1.44 2.04 2.99 4.32 4.96
0.86 0.88 0.91 0.90 0.89 0.84 0.83 0.83 0.79 0.76 0.82 0.86 0.89 0.95 0.96 0.92 0.89 0.89 0.97 1.03 1.16 1.32 1.05 0.58 0.52 0.57 0.71 0.75 0.84 0.79 0.82 0.94 0.92 0.91 0.94 0.98 1.05 1.09 1.24 1.50 1.99 2.82 4.04
0.83 0.81 0.83 0.85 0.86 0.87 0.86 0.92 0.87 0.79 0.81 0.83 0.86 0.89 0.89 0.91 0.94 0.91 0.94 0.98 0.99 1.06 1.06 0.63 0.48 0.51 0.69 0.79 0.77 0.73 0.78 0.82 0.83 0.92 0.94 0.96 1.02 1.10 1.26 1.40 1.65 2.09 2.80
0.86 0.85 0.84 0.87 0.86 0.88 0.90 0.93 0.91 0.83 0.82 0.83 0.84 0.84 0.84 0.84 0.89 0.86 0.86 0.87 0.86 0.83 0.88 0.73 0.51 0.49 0.57 0.67 0.79 0.86 0.83 0.82 0.80 0.88 0.91 0.99 1.09 1.11 1.19 1.33 1.55 1.86 2.23
0.89 0.87 0.87 0.89 0.93 0.95 0.92 0.89 0.92 0.87 0.83 0.83 0.84 0.86 0.84 0.86 0.89 0.83 0.84 0.81 0.74 0.70 0.74 0.76 0.60 0.53 0.56 0.62 0.79 0.94 0.93 0.91 0.87 0.89 0.92 1.00 1.08 1.14 1.17 1.23 1.41 1.65 1.86
0.93 0.85 0.83 0.87 0.97 1.13 1.13 1.03 1.08 1.00 0.89 0.83 0.79 0.79 0.83 0.93 0.93 0.92 0.94 0.84 0.77 0.80 0.83 0.89 0.77 0.65 0.67 0.70 0.87 1.08 1.16 1.11 1.06 0.95 0.98 1.01 1.11 1.20 1.18 1.13 1.15 1.25 1.41
0.91 0.82 0.79 0.82 0.92 1.26 1.62 1.58 1.49 1.25 0.98 0.83 0.75 0.75 0.82 0.96 1.01 1.13 1.23 1.10 1.07 1.15 1.12 1.14 1.05 0.95 0.91 0.95 1.03 1.08 1.23 1.25 1.25 1.12 1.03 0.97 1.00 1.01 1.04 1.08 1.09 1.12 1.19
0.95 0.87 0.81 0.79 0.82 1.10 1.68 1.81 1.51 1.12 0.94 0.84 0.79 0.75 0.76 0.88 0.92 1.00 1.15 1.22 1.28 1.40 1.45 1.44 1.38 1.27 1.05 0.98 1.03 1.17 1.25 1.42 1.49 1.22 1.14 1.08 1.04 1.11 1.05 1.03 1.14 1.15 1.17
0.98 1.00 0.89 0.80 0.76 0.91 1.48 1.62 1.32 0.99 0.85 0.81 0.77 0.76 0.75 0.82 0.89 0.88 0.96 0.99 1.01 1.16 1.37 1.49 1.55 1.22 1.05 1.01 1.20 1.40 1.37 1.46 1.43 1.36 1.45 1.40 1.14 1.14 1.07 1.17 1.31 1.23 1.18
0.89 0.95 0.94 0.85 0.78 0.82 1.30 1.46 1.22 0.96 0.84 0.76 0.71 0.73 0.73 0.75 0.85 1.03 1.02 0.96 0.86 0.89 1.10 1.31 1.54 1.38 1.22 1.25 1.54 1.85 1.95 1.84 1.49 1.32 1.47 1.65 1.27 1.15 1.16 1.24 1.38 1.30 1.17
0.82 0.84 0.86 0.85 0.81 0.78 1.07 1.33 1.18 0.94 0.87 0.79 0.69 0.68 0.70 0.71 0.90 1.15 1.12 0.98 0.82 0.75 0.86 1.18 1.47 1.60 1.60 1.71 1.92 2.23 2.42 2.25 1.84 1.37 1.35 1.59 1.46 1.30 1.39 1.53 1.57 1.44 1.20
0.78 0.78 0.79 0.80 0.75 0.69 0.90 1.16 1.17 0.94 0.86 0.81 0.77 0.71 0.79 0.88 1.03 1.17 1.08 1.03 1.10 0.91 0.80 0.85 0.94 1.07 1.16 1.30 1.62 1.90 2.17 2.24 1.94 1.77 1.47 1.54 1.67 1.66 1.87 1.77 1.63 1.40 1.18